カタログに戻る

THORAD AGENA D DEB

運用中PO
NORAD 4733·DEBRIS·🇺🇸 United States

打ち上げ Apr 8, 1970 から Vandenberg Space Force Base

Loading…

次のパス (今後24時間)

TLE

最新Source: Space-Track

元期: Sep 14, 2026, 02:13 UTC

1 04733U 70025CG  26257.09246768  .00002046  00000-0  34070-3 0  9994
2 04733  99.8961 304.3504 0089701  23.8129 336.7182 14.68959175918496

AllMySatでTHORAD AGENA D DEBをリアルタイム追跡

Download on the App Store